Regional Weather Roundup
Issued by NWS

Home | Current Version | Previous Version | Text Only | Print | Product List | Glossary Off
Versions: 1 2 3 4 5 6 7 8 9 10 11 12 13 14 15 16 17 18 19 20 21 22 23 24 25 26 27 28 29 30 31 32 33 34 35 36 37 38 39 40 41 42 43 44 45 46 47 48 49 50

000
ASUS46 KLOX 270112
RWRCA

SOUTHERN CALIFORNIA WEATHER ROUNDUP
NATIONAL WEATHER SERVICE OXNARD CALIFORNIA
600 PM PDT SUN APR 26 2015

NOTE: "FAIR" INDICATES FEW OR NO CLOUDS BELOW 12,000 FEET WITH NO
SIGNIFICANT WEATHER AND/OR OBSTRUCTIONS TO VISIBILITY.

  -  STATIONS PRECEEDED BY AN ASTERISK (*) ARE NOT NWS OR FAA
     STATIONS AND ARE NOT SUBJECT TO NWS AND FAA QUALITY CONTROL.

CAZ041-042-087-270200-
LA AND ORANGE COUNTY COASTAL AREAS


CITY           SKY/WX    TMP DP  RH WIND       PRES   REMARKS
L.A. DOWNTOWN  MOSUNNY   73  47  39 W7        29.86F
L.A. AIRPORT   MOSUNNY   65  50  58 W23       29.88F
LONG BEACH     MOSUNNY   71  43  36 W8        29.89F

CITY           SKY/WX    TMP DP  RH WIND       PRES   REMARKS
AVALON           N/A    N/A N/A N/A MISG        N/A
FULLERTON      MOSUNNY   73  44  35 VRB7      29.88F
*GETTY CENTER    N/A    N/A N/A N/A N10G20      N/A
HAWTHORNE      MOSUNNY   70  48  45 W22       29.88F
*LEO CARRILLO    N/A     63  49  61 W14G29      N/A
*LOS ALAMITOS  FAIR      70  50  49 SW12      29.89F
*REDONDO BEACH   N/A     65  52  60 CALM      29.90F
SANTA ANA      MOSUNNY   68  46  45 W9        29.89F
STA MONICA APT MOSUNNY   71  48  43 W7        29.88F
*UCLA            N/A     77  32  19 NW22      29.86S

$$

CAZ547-548-048-270200-
LA COUNTY VALLEYS AND INLAND EMPIRE


CITY           SKY/WX    TMP DP  RH WIND       PRES   REMARKS
BURBANK        SUNNY     77  34  21 NW18G25   29.88F
VAN NUYS       MOSUNNY   76  33  21 N23G35    29.88F

CITY           SKY/WX    TMP DP  RH WIND       PRES   REMARKS
CORONA AIRPORT PTCLDY    71  44  37 W14       29.89F
CHINO          PTSUNNY   72  44  36 SW17      29.89F
MARCH AFB      MOSUNNY   70  47  43 NW15      29.89S
*NORTHRIDGE      N/A     75  25  15 NW7G17      N/A
ONTARIO        PTSUNNY   71  44  37 W14       29.88F
*PASADENA        N/A     72  43  35 E5          N/A
POMONA         SUNNY     68  39  34 SW12      29.92F
RIVERSIDE      MOSUNNY   70  45  40 W15G26    29.88S
SAN BERNARDINO MOSUNNY   72  43  35 SW14      29.89S
*SAN RAFAEL HI   N/A     74  33  22 NE3         N/A
*SAUGUS          N/A     73  31  21 N21G38      N/A
*WHITEMAN AP   SUNNY     75  34  22 NW20G35   29.92
*WOODLAND HILL   N/A     75  34  22 NW9G16      N/A

$$

CAZ054-055-270200-
LA AND SAN BERNARDINO COUNTY MOUNTAINS


CITY           SKY/WX    TMP DP  RH WIND       PRES   REMARKS
*ACTON           N/A     71  34  26 W7          N/A
*BIG BEAR AIRP CLEAR     50  19  29 N6G16     30.06F
*BIG PINES       N/A     52  31  44 CALM        N/A
*CHILAO          N/A     58  31  36 NW9         N/A
MT WILSON NWS    N/A    N/A N/A N/A MISG        N/A
SANDBERG       SUNNY     55  34  45 N23G37    30.05S
*WARM SPRINGS    N/A     57  34  42 W20G37      N/A

$$

CAZ028-029-059-060-099-270200-
ANTELOPE VALLEY AND SURROUNDING AREAS


CITY           SKY/WX    TMP DP  RH WIND       PRES   REMARKS
LANCASTER      MOSUNNY   66  36  32 W23       29.95F
PALMDALE       MOSUNNY   65  36  34 W29       29.97S

CITY           SKY/WX    TMP DP  RH WIND       PRES   REMARKS
29 PALMS       PTSUNNY   75  19  12 N18G30    29.93S
BARSTOW/DAGGET SUNNY     79  18  10 NW9       29.87S
BISHOP         PTSUNNY   68  18  14 N24G38    30.03R
CHINA LAKE     MOSUNNY   76  23  14 SE3       29.88S
EDWARDS AFB    MOSUNNY   71  35  26 W16       29.91S
MOJAVE         FAIR      64  37  36 W23G31    29.95F
NEEDLES        SUNNY     79  17  10 NE21G28   29.81F
VICTORVILLE    SUNNY     70  30  23 W16       29.94S

$$

CAZ039-040-270200-
VENTURA AND SANTA BARBARA COUNTY COAST


CITY           SKY/WX    TMP DP  RH WIND       PRES   REMARKS
CAMARILLO      SUNNY     68  48  48 S8        29.92F
NWS OXNARD       N/A     67  49  52 CALM      29.91F
OXNARD AIRPORT MOSUNNY   65  49  56 W13       29.91F
*POINT MUGU    MOSUNNY   66  50  56 SW9       29.94F
SBA APT/GOLETA SUNNY     77  41  27 NW16G23   29.92R
*SANTA BARBARA   N/A     75  42  29 N5        29.99R
*VENTURA         N/A     73  47  39 SW3       29.96S

$$

CAZ044-045-270200-
VENTURA COUNTY VALLEYS


CITY           SKY/WX    TMP DP  RH WIND       PRES   REMARKS
*SIMI VALLEY     N/A     71  44  38 W3        29.88S
*OJAI            N/A     76  46  33 E3        29.85S
*FILLMORE        N/A     75  47  36 CALM      29.82R

$$

CAZ053-270200-
VENTURA COUNTY MOUNTAINS


CITY           SKY/WX    TMP DP  RH WIND       PRES   REMARKS
*ROSE VALLEY     N/A     64  32  29 MISG        N/A

$$

CAZ034-035-036-270200-
CENTRAL COAST AND SANTA YNEZ VALLEY


CITY           SKY/WX    TMP DP  RH WIND       PRES   REMARKS
SAN LUIS OBISP SUNNY     59  49  69 NW20G30   30.01S
SANTA MARIA    SUNNY     60  49  66 NW20      30.02S

CITY           SKY/WX    TMP DP  RH WIND       PRES   REMARKS
*CAL POLY SLO    N/A     64  50  59 W7G13       N/A
*LOMPOC        MOSUNNY   61  46  59 W16       30.05F
*PISMO BEACH     N/A     62  52  70 W3        30.00F
*SANTA YNEZ    FAIR      63  43  48 W20       29.98S

$$

CAZ037-038-051-270200-
SAN LUIS OBISPO COUNTY INTERIOR AND CUYAMA VALLEY


CITY           SKY/WX    TMP DP  RH WIND       PRES   REMARKS
*CUYAMA          N/A     64  37  37 N6        30.00F
PASO ROBLES    SUNNY     77  39  25 NW18      29.99S

$$

CAZ032-033-061-270200-
SOUTHERN DESERTS


CITY           SKY/WX    TMP DP  RH WIND       PRES   REMARKS
BLYTHE         MOSUNNY   82  20  10 NW14      29.78S
IMPERIAL       MOSUNNY   82  36  19 NW8       29.76F
PALM SPRINGS   MOSUNNY   85  37  18 NW13G20   29.79F
THERMAL        SUNNY     87  30  13 NW12      29.74F

$$

ELSEWHERE ACROSS THE WESTERN UNITED STATES AND MEXICO


CITY           SKY/WX    TMP DP  RH WIND       PRES   REMARKS
DENVER, CO     DRIZZLE   42  42 100 E12       29.98R FOG
GRAND CANYON,  SUNNY     48  27  44 NW9G18    29.92R
HONOLULU, HI   PTSUNNY   77  72  83 SW9       29.96F
KAHULUI, MAUI  PTSUNNY   82  70  65 NE12      29.97F
LAKE TAHOE, CA MOSUNNY   53  26  35 VRB5      30.18S
LAS VEGAS, NV  MOSUNNY   72  16  12 NE14G20   29.85F
MAMMOTH LAKES, FAIR      55  19  24 N16G22    30.20R
MEXICO CITY, M PTCLDY    75  39  27 SW8       30.12R
PHOENIX, AZ    CLOUDY    68  47  46 E6        29.78F
PORTLAND, OR   CLOUDY    59  44  57 SW7       30.25S
RENO, NV       PTSUNNY   61  23  23 E7        30.16S
SALT LAKE CITY PTSUNNY   51  34  52 CALM      30.05S
SAN DIEGO, CA  PTSUNNY   67  53  61 NW9       29.94F
SAN FRANCISCO, MOSUNNY   61  49  64 W26G35    30.09F
SAN JOSE, CA   MOSUNNY   68  49  50 NW20      30.07S
SEATTLE, WA    CLOUDY    57  39  51 SW6       30.23S
TIJUANA, MEX   PTSUNNY   66  46  48 NW13      29.95F

$$

STATION/POSITION TIME  TEMP    WIND        PRES    VSBY  WAVE
                       AIR SEA DIR/SP/G                  HT/PER
                 (UTC) (F)     (DEG/KT/KT) (MB)    (MI)  (FT/S)
POINT ARGUELLO B NOT AVBL
WEST SANTA BARBA 0100   55 53  330/ 23/ 27 1015.3F         8/ 8
POINT CONCEPTION NOT AVBL
EAST SANTA BARBA NOT AVBL
SANTA MONICA BAY 0100   60 60  290/ 14/ 16 1013.1F         5/ 7


USA.gov is the U.S. government's official web portal to all federal, state and local government web resources and services.